Regional Weather Roundup
Issued by NWS

Home | Current Version | Previous Version | Text Only | Print | Product List | Glossary Off
Versions: 1 2 3 4 5 6 7 8 9 10 11 12 13 14 15 16 17 18 19 20 21 22 23 24 25 26 27 28 29 30 31 32 33 34 35 36 37 38 39 40 41 42 43 44 45 46 47 48 49 50

995
ASUS43 KLSX 230857
RWRMO

WEATHER SUMMARY FOR MISSOURI
NATIONAL WEATHER SERVICE SPRINGFIELD MO
400 AM CDT WED AUG 23 2017

NOTE: "FAIR" INDICATES FEW OR NO CLOUDS BELOW 12,000 FEET WITH NO
       SIGNIFICANT WEATHER AND/OR OBSTRUCTIONS TO VISIBILITY.
       CURRENT SKY AND/OR WEATHER CONDITIONS ARE NOT AVAILABLE FOR
       CHILLICOTHE AND FARMINGTON.

MOZ001>031-035>038-043-044-053-054-231000-
...NORTHERN AND WESTERN MISSOURI...

CITY           SKY/WX    TMP DP  RH WIND       PRES   REMARKS
KANSAS CTY INT CLEAR     58  53  84 N6        30.16F
LEE`S SUMMIT   CLEAR     60  56  86 MISG      30.16F
ST JOSEPH      CLEAR     53  53 100 CALM      30.17S
CHILLICOTHE      N/A     54  54 100 CALM      30.16F

$$
MOZ066>068-077>081-088>096-101>105-231000-
...SOUTHWEST MISSOURI...

CITY           SKY/WX    TMP DP  RH WIND       PRES   REMARKS
SPRINGFIELD    CLOUDY    64  62  93 NE6       30.11F
JOPLIN         CLOUDY    65  62  90 NE5       30.12S

$$
MOZ032>034-039>042-045>050-055>058-069>072-231000-
...CENTRAL MISSOURI...

CITY           SKY/WX    TMP DP  RH WIND       PRES   REMARKS
COLUMBIA       NOT AVBL
JEFFERSON CITY CLEAR     61  58  90 W3        30.12S
ROLLA          CLEAR     59  56  89 CALM      30.13S
SEDALIA        CLEAR     58  57  97 N3        30.15F

$$
MOZ051-052-059>065-231000-
...EAST CENTRAL MISSOURI...

CITY           SKY/WX    TMP DP  RH WIND       PRES   REMARKS
ST LOUIS INTL  CLEAR     60  57  89 NW3       30.09S

$$
MOZ072>076-082>087-097>100-106>115-231000-
...SOUTH CENTRAL AND SOUTHEAST MISSOURI...

CITY           SKY/WX    TMP DP  RH WIND       PRES   REMARKS
CAPE GIRARDEAU CLOUDY    63  60  90 CALM      30.04S
POPLAR BLUFF   PTCLDY    66  64  93 N7        30.03S
WEST PLAINS    PTCLDY    65  60  84 N5        30.10S

$$



USA.gov is the U.S. government's official web portal to all federal, state and local government web resources and services.